THA302 VYYY-VTBS

Flight info

Callsign THA302
Flight time 1h 5m
Altitude 33000
Route MARDO1A BETNO G463 TARED WILLA1D
Aircraft A320/M-SDE3FGHIRWY/LB1

Departure

Time 2026-05-06 00:11
Airport Yangon International Airport (VYYY)

Arrival

Time 2026-05-06 01:17
Airport Suvarnabhumi Airport (VTBS)
Time Latitude Longitude Altitude Speed Heading
2026-05-05 23:55 16.90173 96.13353 100 ft 0 kts 154°
2026-05-06 00:03 16.90174 96.13352 101 ft 2 kts 155°
2026-05-06 00:03 16.90165 96.13340 101 ft 4 kts 228°
2026-05-06 00:03 16.90162 96.13335 101 ft 4 kts 221°
2026-05-06 00:04 16.90179 96.13346 100 ft 3 kts 146°
2026-05-06 00:04 16.90194 96.13331 101 ft 4 kts 128°
2026-05-06 00:04 16.90208 96.13308 100 ft 4 kts 113°
2026-05-06 00:04 16.90216 96.13281 99 ft 3 kts 98°
2026-05-06 00:05 16.90217 96.13273 99 ft 0 kts 97°
2026-05-06 00:06 16.90220 96.13279 99 ft 4 kts 66°
2026-05-06 00:07 16.90271 96.13293 100 ft 12 kts
2026-05-06 00:07 16.90389 96.13334 97 ft 23 kts 32°
2026-05-06 00:07 16.90545 96.13441 93 ft 29 kts 33°
2026-05-06 00:07 16.90712 96.13554 88 ft 28 kts 32°
2026-05-06 00:08 16.90874 96.13666 86 ft 27 kts 33°
2026-05-06 00:08 16.91040 96.13778 82 ft 27 kts 33°
2026-05-06 00:08 16.91205 96.13890 75 ft 28 kts 33°
2026-05-06 00:08 16.91370 96.14003 70 ft 27 kts 33°
2026-05-06 00:09 16.91535 96.14115 62 ft 27 kts 33°
2026-05-06 00:09 16.91696 96.14226 55 ft 29 kts 33°
2026-05-06 00:09 16.91858 96.14335 56 ft 29 kts 33°
2026-05-06 00:09 16.92015 96.14444 53 ft 28 kts 31°
2026-05-06 00:10 16.92167 96.14543 48 ft 21 kts 32°
2026-05-06 00:10 16.92281 96.14554 45 ft 15 kts 329°
2026-05-06 00:10 16.92341 96.14454 44 ft 17 kts 266°
2026-05-06 00:10 16.92190 96.14318 48 ft 57 kts 213°
2026-05-06 00:11 16.91679 96.13972 64 ft 116 kts 213°
2026-05-06 00:11 16.90874 96.13426 91 ft 158 kts 213°
2026-05-06 00:11 16.89940 96.12778 635 ft 159 kts 212°
2026-05-06 00:11 16.89060 96.12092 1243 ft 157 kts 223°
2026-05-06 00:12 16.88233 96.11279 1574 ft 173 kts 226°
2026-05-06 00:12 16.87335 96.10364 1868 ft 188 kts 226°
2026-05-06 00:12 16.86361 96.09378 2237 ft 202 kts 225°
2026-05-06 00:12 16.85306 96.08308 2501 ft 223 kts 225°
2026-05-06 00:13 16.84140 96.07121 2936 ft 241 kts 225°
2026-05-06 00:13 16.82925 96.05888 3669 ft 245 kts 224°
2026-05-06 00:13 16.81694 96.04641 4470 ft 248 kts 224°
2026-05-06 00:13 16.80450 96.03383 5285 ft 250 kts 223°
2026-05-06 00:14 16.79199 96.02122 6097 ft 252 kts 223°
2026-05-06 00:14 16.77932 96.00850 6860 ft 254 kts 223°
2026-05-06 00:14 16.76655 95.99564 7651 ft 256 kts 224°
2026-05-06 00:14 16.75366 95.98264 8428 ft 258 kts 224°
2026-05-06 00:15 16.73969 95.97118 9173 ft 262 kts 206°
2026-05-06 00:15 16.72193 95.96675 9886 ft 268 kts 180°
2026-05-06 00:15 16.70341 95.97141 10286 ft 289 kts 152°
2026-05-06 00:15 16.68807 95.98621 10472 ft 315 kts 129°
2026-05-06 00:16 16.67459 96.00523 10613 ft 338 kts 127°
2026-05-06 00:16 16.66038 96.02580 10791 ft 357 kts 127°
2026-05-06 00:16 16.64578 96.04706 11275 ft 364 kts 127°
2026-05-06 00:16 16.63092 96.06863 11837 ft 367 kts 127°
2026-05-06 00:17 16.61587 96.09030 12406 ft 371 kts 127°
2026-05-06 00:17 16.60064 96.11208 13004 ft 372 kts 127°
2026-05-06 00:17 16.58528 96.13391 13611 ft 375 kts 127°
2026-05-06 00:17 16.56976 96.15586 14120 ft 378 kts 127°
2026-05-06 00:18 16.55409 96.17798 14612 ft 381 kts 127°
2026-05-06 00:18 16.53828 96.20028 15099 ft 384 kts 127°
2026-05-06 00:18 16.52234 96.22276 15574 ft 387 kts 127°
2026-05-06 00:18 16.50629 96.24546 16048 ft 391 kts 127°
2026-05-06 00:19 16.49011 96.26836 16515 ft 394 kts 127°
2026-05-06 00:19 16.47381 96.29146 16984 ft 397 kts 127°
2026-05-06 00:19 16.45736 96.31476 17455 ft 401 kts 127°
2026-05-06 00:19 16.44074 96.33823 17919 ft 404 kts 127°
2026-05-06 00:20 16.42398 96.36189 18349 ft 408 kts 127°
2026-05-06 00:20 16.40711 96.38575 18749 ft 411 kts 127°
2026-05-06 00:20 16.39012 96.40978 19154 ft 413 kts 127°
2026-05-06 00:20 16.37301 96.43396 19557 ft 416 kts 127°
2026-05-06 00:21 16.35575 96.45834 19973 ft 419 kts 127°
2026-05-06 00:21 16.33865 96.48246 20377 ft 421 kts 127°
2026-05-06 00:21 16.32119 96.50707 20781 ft 424 kts 127°
2026-05-06 00:21 16.30361 96.53183 21168 ft 427 kts 127°
2026-05-06 00:22 16.28583 96.55684 21568 ft 429 kts 127°
2026-05-06 00:22 16.26804 96.58190 21945 ft 432 kts 127°
2026-05-06 00:22 16.25015 96.60711 22314 ft 434 kts 127°
2026-05-06 00:22 16.23215 96.63247 22677 ft 437 kts 127°
2026-05-06 00:23 16.21404 96.65795 23040 ft 439 kts 127°
2026-05-06 00:23 16.19582 96.68356 23387 ft 441 kts 127°
2026-05-06 00:23 16.17745 96.70942 23696 ft 444 kts 127°
2026-05-06 00:23 16.15906 96.73529 23983 ft 446 kts 127°
2026-05-06 00:24 16.14060 96.76128 24288 ft 448 kts 127°
2026-05-06 00:24 16.12206 96.78737 24587 ft 449 kts 127°
2026-05-06 00:24 16.10361 96.81325 24885 ft 451 kts 127°
2026-05-06 00:24 16.08482 96.83954 25172 ft 453 kts 127°
2026-05-06 00:25 16.06597 96.86586 25460 ft 455 kts 127°
2026-05-06 00:25 16.04706 96.89229 25748 ft 456 kts 127°
2026-05-06 00:25 16.02811 96.91884 26042 ft 458 kts 127°
2026-05-06 00:25 16.00911 96.94550 26324 ft 460 kts 127°
2026-05-06 00:26 15.99003 96.97225 26601 ft 462 kts 127°
2026-05-06 00:26 15.97080 96.99913 26889 ft 463 kts 127°
2026-05-06 00:26 15.95149 97.02610 27164 ft 465 kts 127°
2026-05-06 00:26 15.93215 97.05311 27444 ft 467 kts 127°
2026-05-06 00:27 15.91268 97.08026 27721 ft 469 kts 127°
2026-05-06 00:27 15.89313 97.10751 27998 ft 470 kts 127°
2026-05-06 00:27 15.87356 97.13480 28279 ft 472 kts 127°
2026-05-06 00:27 15.85421 97.16180 28635 ft 471 kts 127°
2026-05-06 00:28 15.83470 97.18906 29084 ft 469 kts 127°
2026-05-06 00:28 15.81502 97.21655 29508 ft 468 kts 127°
2026-05-06 00:28 15.79584 97.24329 29925 ft 467 kts 127°
2026-05-06 00:28 15.77644 97.27029 30271 ft 466 kts 127°
2026-05-06 00:29 15.75705 97.29722 30621 ft 466 kts 127°
2026-05-06 00:29 15.73766 97.32412 30955 ft 465 kts 126°
2026-05-06 00:29 15.71832 97.35104 31293 ft 465 kts 126°
2026-05-06 00:29 15.69900 97.37795 31632 ft 465 kts 126°
2026-05-06 00:30 15.67967 97.40483 31978 ft 465 kts 126°
2026-05-06 00:30 15.66032 97.43168 32329 ft 464 kts 126°
2026-05-06 00:30 15.64093 97.45855 32702 ft 464 kts 126°
2026-05-06 00:30 15.62156 97.48542 32859 ft 466 kts 126°
2026-05-06 00:31 15.60199 97.51260 32892 ft 471 kts 126°
2026-05-06 00:31 15.56267 97.56718 32891 ft 473 kts 126°
2026-05-06 00:32 15.52985 97.61266 32890 ft 474 kts 126°
2026-05-06 00:32 15.49036 97.66738 32890 ft 473 kts 126°
2026-05-06 00:33 15.45093 97.72200 32897 ft 473 kts 126°
2026-05-06 00:33 15.41149 97.77654 32902 ft 473 kts 126°
2026-05-06 00:34 15.37207 97.83107 32903 ft 473 kts 126°
2026-05-06 00:34 15.33261 97.88555 32906 ft 473 kts 126°
2026-05-06 00:35 15.29312 97.94003 32912 ft 473 kts 126°
2026-05-06 00:35 15.25359 97.99451 32908 ft 473 kts 126°
2026-05-06 00:36 15.21409 98.04903 32910 ft 474 kts 126°
2026-05-06 00:36 15.17440 98.10370 32917 ft 475 kts 126°
2026-05-06 00:37 15.13471 98.15833 32917 ft 475 kts 126°
2026-05-06 00:37 15.09605 98.21369 32932 ft 474 kts 120°
2026-05-06 00:38 15.06563 98.27416 32939 ft 474 kts 116°
2026-05-06 00:38 15.03549 98.33484 32928 ft 474 kts 116°
2026-05-06 00:39 15.00553 98.39504 32934 ft 474 kts 116°
2026-05-06 00:39 14.97532 98.45565 32940 ft 473 kts 116°
2026-05-06 00:40 14.94512 98.51617 32948 ft 474 kts 116°
2026-05-06 00:40 14.91490 98.57671 32948 ft 474 kts 116°
2026-05-06 00:41 14.88471 98.63730 32945 ft 474 kts 116°
2026-05-06 00:41 14.85446 98.69787 32955 ft 474 kts 116°
2026-05-06 00:42 14.82414 98.75846 32978 ft 473 kts 116°
2026-05-06 00:42 14.79388 98.81870 32985 ft 471 kts 116°
2026-05-06 00:43 14.76378 98.87875 32982 ft 470 kts 116°
2026-05-06 00:43 14.73382 98.93866 32972 ft 469 kts 116°
2026-05-06 00:44 14.70388 98.99839 32970 ft 468 kts 116°
2026-05-06 00:44 14.67394 99.05791 32959 ft 467 kts 116°
2026-05-06 00:45 14.64403 99.11740 32951 ft 466 kts 116°
2026-05-06 00:45 14.61413 99.17682 32952 ft 466 kts 116°
2026-05-06 00:46 14.58420 99.23631 32947 ft 466 kts 116°
2026-05-06 00:46 14.55428 99.29574 32949 ft 467 kts 116°
2026-05-06 00:47 14.52435 99.35518 32919 ft 467 kts 116°
2026-05-06 00:47 14.50938 99.38492 32681 ft 467 kts 116°
2026-05-06 00:47 14.49442 99.41465 32444 ft 467 kts 116°
2026-05-06 00:47 14.47962 99.44395 32196 ft 467 kts 117°
2026-05-06 00:48 14.46456 99.47370 31950 ft 468 kts 117°
2026-05-06 00:48 14.45033 99.50387 31713 ft 467 kts 111°
2026-05-06 00:48 14.44057 99.53579 31471 ft 467 kts 102°
2026-05-06 00:48 14.43592 99.56888 31236 ft 466 kts 93°
2026-05-06 00:49 14.43398 99.60229 30578 ft 468 kts 93°
2026-05-06 00:49 14.43194 99.63625 29499 ft 477 kts 93°
2026-05-06 00:49 14.42982 99.67025 28985 ft 469 kts 94°
2026-05-06 00:49 14.42769 99.70374 28314 ft 465 kts 94°
2026-05-06 00:50 14.42556 99.73687 27676 ft 461 kts 94°
2026-05-06 00:50 14.42344 99.76978 27033 ft 457 kts 94°
2026-05-06 00:50 14.42134 99.80195 26411 ft 454 kts 94°
2026-05-06 00:50 14.41923 99.83431 25777 ft 451 kts 94°
2026-05-06 00:51 14.41711 99.86660 25144 ft 448 kts 94°
2026-05-06 00:51 14.41505 99.89854 24532 ft 445 kts 93°
2026-05-06 00:51 14.41304 99.93036 23914 ft 442 kts 93°
2026-05-06 00:51 14.41107 99.96191 23274 ft 439 kts 93°
2026-05-06 00:52 14.40909 99.99321 22663 ft 434 kts 93°
2026-05-06 00:52 14.40710 100.02414 22106 ft 429 kts 93°
2026-05-06 00:52 14.40483 100.05441 21853 ft 416 kts 97°
2026-05-06 00:52 14.39894 100.08316 21657 ft 405 kts 104°
2026-05-06 00:53 14.39195 100.11102 21380 ft 396 kts 104°
2026-05-06 00:53 14.38505 100.13847 21228 ft 396 kts 104°
2026-05-06 00:53 14.37817 100.16597 20992 ft 395 kts 104°
2026-05-06 00:53 14.37145 100.19299 20757 ft 393 kts 104°
2026-05-06 00:54 14.36463 100.22026 20522 ft 392 kts 104°
2026-05-06 00:54 14.35783 100.24739 20288 ft 390 kts 104°
2026-05-06 00:54 14.35107 100.27441 20054 ft 388 kts 104°
2026-05-06 00:54 14.34432 100.30132 19819 ft 387 kts 104°
2026-05-06 00:55 14.33759 100.32811 19588 ft 385 kts 104°
2026-05-06 00:55 14.33090 100.35481 19359 ft 384 kts 104°
2026-05-06 00:55 14.32423 100.38142 19125 ft 383 kts 104°
2026-05-06 00:55 14.31754 100.40801 18895 ft 382 kts 104°
2026-05-06 00:56 14.31090 100.43445 18667 ft 381 kts 104°
2026-05-06 00:56 14.30427 100.46082 18440 ft 379 kts 104°
2026-05-06 00:56 14.29768 100.48711 18266 ft 378 kts 104°
2026-05-06 00:56 14.29116 100.51302 18055 ft 378 kts 104°
2026-05-06 00:57 14.28457 100.53917 17823 ft 376 kts 104°
2026-05-06 00:57 14.27800 100.56522 17579 ft 375 kts 104°
2026-05-06 00:57 14.27147 100.59116 17357 ft 373 kts 104°
2026-05-06 00:57 14.26498 100.61698 17126 ft 371 kts 104°
2026-05-06 00:58 14.25853 100.64270 16893 ft 370 kts 104°
2026-05-06 00:58 14.25211 100.66831 16677 ft 368 kts 104°
2026-05-06 00:58 14.24547 100.69374 16435 ft 367 kts 108°
2026-05-06 00:58 14.23415 100.71718 16203 ft 366 kts 125°
2026-05-06 00:59 14.21672 100.73626 15973 ft 366 kts 141°
2026-05-06 00:59 14.19483 100.74966 15190 ft 368 kts 159°
2026-05-06 00:59 14.17025 100.75511 14795 ft 350 kts 175°
2026-05-06 00:59 14.14670 100.75729 14551 ft 331 kts 174°
2026-05-06 01:00 14.12429 100.75879 14149 ft 324 kts 181°
2026-05-06 01:00 14.10210 100.75581 13923 ft 321 kts 193°
2026-05-06 01:00 14.08049 100.75030 13697 ft 319 kts 194°
2026-05-06 01:00 14.05900 100.74468 13440 ft 318 kts 194°
2026-05-06 01:01 14.03757 100.73899 13196 ft 316 kts 194°
2026-05-06 01:01 14.01628 100.73329 12996 ft 316 kts 194°
2026-05-06 01:01 13.99508 100.72764 12706 ft 314 kts 194°
2026-05-06 01:01 13.97398 100.72203 12393 ft 312 kts 194°
2026-05-06 01:02 13.95301 100.71648 12089 ft 310 kts 193°
2026-05-06 01:02 13.93215 100.71097 11783 ft 309 kts 193°
2026-05-06 01:02 13.91142 100.70550 11497 ft 307 kts 193°
2026-05-06 01:02 13.89081 100.70007 11207 ft 305 kts 193°
2026-05-06 01:03 13.87028 100.69466 10926 ft 303 kts 193°
2026-05-06 01:03 13.84991 100.68928 10647 ft 301 kts 193°
2026-05-06 01:03 13.83018 100.68407 10360 ft 292 kts 193°
2026-05-06 01:03 13.81066 100.67889 10061 ft 288 kts 193°
2026-05-06 01:04 13.79129 100.67376 9762 ft 286 kts 193°
2026-05-06 01:04 13.77194 100.66863 9446 ft 287 kts 193°
2026-05-06 01:04 13.75261 100.66351 9114 ft 286 kts 193°
2026-05-06 01:04 13.73334 100.65840 8786 ft 286 kts 193°
2026-05-06 01:05 13.71413 100.65330 8472 ft 285 kts 193°
2026-05-06 01:05 13.69496 100.64825 8155 ft 284 kts 193°
2026-05-06 01:05 13.67581 100.64319 7839 ft 283 kts 193°
2026-05-06 01:05 13.65676 100.63816 7532 ft 282 kts 193°
2026-05-06 01:06 13.63780 100.63315 7208 ft 281 kts 193°
2026-05-06 01:06 13.61887 100.62816 6924 ft 280 kts 193°
2026-05-06 01:06 13.60031 100.62325 6619 ft 271 kts 193°
2026-05-06 01:06 13.58232 100.61847 6319 ft 262 kts 193°
2026-05-06 01:07 13.56490 100.61386 6000 ft 255 kts 193°
2026-05-06 01:07 13.54823 100.60946 5690 ft 247 kts 193°
2026-05-06 01:07 13.53186 100.60513 5369 ft 239 kts 193°
2026-05-06 01:07 13.51595 100.60093 5060 ft 234 kts 193°
2026-05-06 01:08 13.50020 100.59677 4757 ft 234 kts 193°
2026-05-06 01:08 13.48444 100.59260 4440 ft 234 kts 193°
2026-05-06 01:08 13.46868 100.58845 4122 ft 234 kts 193°
2026-05-06 01:08 13.45293 100.58434 3807 ft 233 kts 193°
2026-05-06 01:09 13.43718 100.58026 3496 ft 234 kts 193°
2026-05-06 01:09 13.42128 100.57702 3187 ft 233 kts 180°
2026-05-06 01:09 13.40572 100.58019 3003 ft 225 kts 153°
2026-05-06 01:09 13.39387 100.58959 2993 ft 209 kts 128°
2026-05-06 01:10 13.38749 100.60232 3018 ft 197 kts 104°
2026-05-06 01:10 13.38665 100.61615 3010 ft 194 kts 81°
2026-05-06 01:10 13.39008 100.62954 3004 ft 193 kts 74°
2026-05-06 01:10 13.39369 100.64261 3001 ft 193 kts 74°
2026-05-06 01:11 13.39729 100.65588 3000 ft 192 kts 75°
2026-05-06 01:11 13.40143 100.66891 3000 ft 192 kts 64°
2026-05-06 01:11 13.40902 100.68019 3002 ft 193 kts 46°
2026-05-06 01:11 13.41986 100.68815 3007 ft 193 kts 24°
2026-05-06 01:12 13.43257 100.69269 3007 ft 193 kts 17°
2026-05-06 01:12 13.44554 100.69633 3006 ft 193 kts 15°
2026-05-06 01:12 13.45856 100.69980 3007 ft 193 kts 15°
2026-05-06 01:12 13.47162 100.70323 3007 ft 193 kts 14°
2026-05-06 01:13 13.48466 100.70666 3006 ft 193 kts 14°
2026-05-06 01:13 13.49771 100.71008 2982 ft 194 kts 14°
2026-05-06 01:13 13.51079 100.71351 2807 ft 193 kts 14°
2026-05-06 01:13 13.52357 100.71687 2586 ft 192 kts 14°
2026-05-06 01:14 13.54905 100.72356 2104 ft 180 kts 14°
2026-05-06 01:14 13.56089 100.72667 1878 ft 170 kts 14°
2026-05-06 01:14 13.57209 100.72960 1665 ft 163 kts 13°
2026-05-06 01:15 13.58280 100.73242 1492 ft 156 kts 14°
2026-05-06 01:15 13.59324 100.73516 1272 ft 153 kts 14°
2026-05-06 01:15 13.60352 100.73786 1069 ft 152 kts 14°
2026-05-06 01:15 13.61371 100.74053 881 ft 151 kts 14°
2026-05-06 01:16 13.62386 100.74320 697 ft 150 kts 15°
2026-05-06 01:16 13.63401 100.74586 505 ft 151 kts 15°
2026-05-06 01:16 13.64421 100.74854 309 ft 151 kts 15°
2026-05-06 01:16 13.65444 100.75122 112 ft 152 kts 15°
2026-05-06 01:17 13.66447 100.75396 13 ft 138 kts 16°
2026-05-06 01:17 13.67239 100.75603 9 ft 96 kts 13°
2026-05-06 01:17 13.67718 100.75723 7 ft 46 kts 13°
2026-05-06 01:17 13.67970 100.75720 9 ft 34 kts 347°
2026-05-06 01:18 13.68136 100.75681 8 ft 25 kts 348°
2026-05-06 01:18 13.68293 100.75683 9 ft 22 kts 12°
2026-05-06 01:18 13.68436 100.75687 9 ft 20 kts 321°
2026-05-06 01:18 13.68484 100.75542 8 ft 23 kts 284°
2026-05-06 01:19 13.68556 100.75455 8 ft 16 kts 359°
2026-05-06 01:19 13.68633 100.75469 8 ft 17 kts 14°
2026-05-06 01:19 13.68698 100.75428 8 ft 10 kts 280°
2026-05-06 01:19 13.68705 100.75393 9 ft 0 kts 285°